Dewpoint
31 29 29 29 30 30 30 27 25 27 29 30 31 31 29 28 29 29 30 34 36 38 38 38 39 39 46 48 48 50 51 52 53 55 56 56 56 57 58 58 58 59 59 60 62 62 63 63 63 64 65 66 67 68 69 69 69 69 70 71 71 71 71 71 71 71 71 70 71 70 70 70 71 71 71 71 70 71 73 74 74 75 74 75 75 75
30 29 29 30 31 30 28 27 25 25 26 27 27 29 30 28 27 28 28 29 34 35 37 38 38 38 46 47 48 50 50 50 52 53 54 55 55 57 58 58 58 59 59 60 61 61 62 62 62 63 64 66 66 67 68 69 69 69 69 70 71 71 71 71 71 71 71 70 71 70 69 70 70 70 71 71 71 70 72 74 74 75 75 74 75 76
27 27 29 30 31 29 27 25 25 24 24 24 25 25 26 27 27 27 27 28 30 34 34 37 37 37 46 47 48 49 49 50 51 51 53 54 54 56 57 58 58 58 59 59 59 60 61 62 62 63 64 65 66 66 67 68 68 68 68 69 71 71 71 70 71 71 71 70 71 70 70 70 70 71 71 71 72 71 71 74 74 75 75 75 75 75
26 26 28 30 31 30 27 25 24 24 24 23 22 22 22 25 25 25 26 26 28 28 31 35 36 37 43 48 48 49 49 50 51 51 52 53 53 56 57 58 58 58 58 58 58 58 60 61 62 62 63 64 65 66 67 67 68 68 68 68 70 71 71 70 71 72 71 71 71 71 71 71 71 70 71 71 72 71 72 73 74 75 75 75 75 75
27 29 29 30 31 31 28 26 24 23 22 23 22 21 21 22 24 25 25 26 24 25 30 34 36 36 37 46 47 49 50 50 50 51 51 52 53 55 57 58 58 58 58 58 58 58 59 60 61 62 62 64 65 66 66 67 67 67 67 68 70 71 71 70 72 72 72 72 71 71 71 71 71 71 71 70 70 70 72 73 74 74 75 75 75 75
27 30 30 29 30 30 30 28 26 23 22 22 22 21 21 22 23 25 25 23 21 21 26 32 33 34 35 43 47 48 49 49 50 51 51 51 53 55 56 57 58 58 58 58 58 58 59 60 61 62 62 63 64 65 67 67 67 67 67 68 70 70 71 70 71 72 72 71 70 70 69 69 69 69 69 69 68 69 71 73 74 74 74 75 75 75
28 30 30 29 29 29 29 29 28 26 22 20 20 22 21 21 22 24 24 24 22 21 25 31 31 31 35 36 46 47 48 48 49 49 50 51 53 55 56 57 57 58 58 58 58 58 59 59 61 61 61 62 64 65 67 67 67 68 67 68 70 70 71 71 72 72 72 71 70 70 69 68 68 68 68 69 69 69 70 73 74 74 75 75 74 75
31 32 30 28 28 28 28 28 29 28 25 22 21 21 21 20 21 22 23 22 24 30 23 27 31 31 30 32 44 47 47 47 47 48 49 52 53 55 56 57 58 58 59 58 58 58 59 59 60 61 61 62 63 65 66 67 67 68 68 68 69 70 71 71 72 72 71 71 70 70 69 69 68 68 68 69 69 69 71 72 73 74 74 75 75 74
32 31 31 28 27 27 26 28 29 29 27 26 24 22 21 21 21 22 23 22 21 22 20 25 27 31 31 31 35 45 45 45 46 47 49 52 53 54 56 57 58 58 59 59 58 58 58 59 60 61 61 61 63 65 66 66 67 68 68 69 69 70 71 71 72 72 71 71 70 70 69 69 69 69 69 69 69 70 71 71 72 74 74 74 75 74
31 31 31 30 27 25 26 27 29 28 27 27 25 24 23 23 23 23 22 21 21 23 20 23 24 25 30 35 31 39 44 44 46 47 49 51 53 54 55 57 57 58 59 59 59 59 59 59 60 60 61 61 62 64 66 66 67 67 68 68 69 69 71 71 71 72 71 71 71 70 69 69 68 70 69 69 68 69 70 70 71 73 73 74 74 74
29 35 34 30 28 27 26 27 28 27 27 26 25 24 21 21 23 24 23 22 22 18 19 19 20 22 21 31 31 31 37 43 46 47 49 51 53 54 55 56 57 58 59 60 60 60 59 59 59 60 60 61 63 64 65 66 66 67 68 68 69 69 70 71 71 71 71 70 70 69 69 69 68 69 70 69 68 69 70 69 70 72 73 73 73 74
27 26 32 30 31 29 23 24 26 27 27 24 22 23 22 21 23 22 26 28 18 17 22 19 17 16 15 26 29 32 32 40 45 46 48 50 51 53 54 55 56 57 59 60 60 60 60 60 59 60 61 61 63 64 65 65 66 67 68 68 68 69 70 70 71 71 71 70 70 69 69 68 68 68 70 69 68 68 70 69 69 71 72 73 73 73
22 24 25 29 36 29 26 20 23 25 25 24 21 21 19 21 20 16 19 17 18 18 23 17 16 18 17 27 34 29 30 34 45 46 47 50 51 53 54 55 56 57 58 60 60 60 60 60 59 60 61 62 63 64 65 65 65 67 67 68 68 68 69 70 70 70 70 70 70 70 69 68 69 69 70 70 68 68 69 69 68 71 71 72 73 73
17 20 21 21 23 32 26 21 19 22 23 22 21 20 18 16 15 17 20 18 16 19 17 13 16 13 26 23 23 25 29 31 44 46 47 49 51 53 54 55 56 57 58 59 60 60 60 60 60 60 61 62 63 64 65 65 65 67 67 67 68 69 69 70 70 70 70 70 69 70 69 68 69 69 69 71 69 68 69 70 69 70 71 72 72 73
12 13 16 18 18 23 25 20 18 20 21 20 20 18 18 17 16 16 15 12 13 18 18 13 12 18 11 21 23 22 25 30 41 47 48 49 51 53 54 55 56 57 58 59 59 59 60 60 60 61 61 62 63 64 65 65 66 66 67 68 68 69 69 69 69 70 69 69 69 69 69 69 69 69 69 69 71 70 69 70 70 70 71 72 72 73
12 12 16 16 18 20 20 21 20 19 18 18 17 18 19 17 29 15 21 18 19 19 14 16 14 21 16 29 36 28 22 28 37 47 50 50 50 52 54 55 55 57 58 59 59 59 60 60 60 61 62 62 63 65 65 66 66 66 67 68 68 68 69 69 70 69 69 69 69 69 69 69 69 70 70 70 71 72 70 70 71 71 71 72 73 73
15 12 14 18 16 17 18 20 19 20 17 18 17 15 16 20 16 23 33 27 25 22 12 31 23 18 15 14 10 19 27 25 38 46 49 50 51 53 54 55 55 56 58 59 59 59 60 60 61 61 62 62 63 65 65 66 67 67 67 68 68 68 69 69 70 69 69 69 69 69 69 69 69 69 70 69 69 71 72 71 71 72 72 72 73 73
24 20 16 16 17 16 18 19 18 18 19 18 16 17 18 19 18 17 14 25 18 14 19 18 12 20 13 13 24 12 18 20 28 48 49 50 51 53 53 54 55 56 57 59 59 60 60 60 61 61 62 63 63 65 65 66 67 68 68 68 68 68 68 69 70 69 69 69 69 69 69 70 70 70 70 70 70 70 72 72 71 71 72 72 73 73
31 25 22 19 17 18 18 18 18 18 17 17 17 17 16 15 14 20 22 15 14 14 18 18 15 20 20 18 24 13 10 13 20 46 49 50 51 52 53 54 55 56 57 58 58 59 60 61 61 61 62 63 64 65 66 67 68 68 68 69 69 68 68 69 69 70 70 69 69 70 70 70 70 70 70 71 71 71 71 72 72 71 71 72 73 74
32 25 23 23 19 19 19 18 16 16 17 17 16 16 20 17 16 15 15 24 16 21 14 15 17 13 21 16 16 11 10 10 13 31 49 50 51 52 53 54 55 55 56 58 58 59 60 61 61 61 61 62 64 65 66 67 68 68 69 69 69 69 69 69 69 70 70 70 70 70 70 70 70 71 71 71 71 71 71 72 72 71 71 72 73 74
32 34 27 26 25 20 18 18 16 17 16 15 13 14 15 20 19 18 21 13 22 25 15 17 15 21 24 19 15 14 13 12 12 17 47 50 51 52 52 53 54 55 56 57 58 59 60 61 61 62 61 62 63 65 66 67 67 68 69 69 70 69 69 69 69 70 70 70 70 70 70 70 70 70 71 71 71 71 71 71 72 72 71 72 72 73
34 33 32 32 29 25 19 18 18 17 17 16 13 13 13 13 14 12 15 16 19 17 21 19 14 28 22 17 17 16 15 12 12 15 36 50 51 52 52 53 54 55 56 57 58 59 60 61 62 62 62 62 63 64 65 66 67 68 69 69 70 70 70 70 70 70 70 71 70 70 70 70 70 70 71 70 71 71 71 71 72 73 73 72 72 73
35 34 33 32 30 26 24 21 19 18 18 17 15 13 13 12 14 14 16 14 11 10 32 28 19 21 34 28 21 19 16 14 12 13 23 49 51 51 52 52 54 55 55 57 58 59 60 61 61 62 62 62 62 64 65 66 67 68 69 69 70 70 70 70 70 70 70 71 71 70 70 70 70 71 70 70 70 71 71 71 71 72 73 73 72 73
40 37 30 31 33 32 31 27 25 21 18 17 17 15 13 12 12 12 15 20 12 13 12 15 21 19 28 40 31 22 19 15 14 12 20 47 50 51 51 52 53 54 55 56 57 58 59 60 61 62 62 62 63 63 64 65 66 68 69 69 70 70 70 70 70 70 70 70 71 71 70 70 70 70 70 70 70 70 70 71 71 71 72 73 73 73
28 30 28 27 31 28 26 27 25 23 18 17 16 16 13 13 12 16 23 25 13 14 11 15 14 14 34 43 34 34 28 18 14 22 26 46 50 50 50 51 52 54 55 55 56 57 59 60 61 62 62 62 63 63 64 65 66 67 68 69 70 70 71 71 71 71 70 70 70 70 71 70 70 70 70 70 70 70 70 70 70 70 71 72 73 73
28 25 28 28 30 26 22 21 25 24 19 16 17 16 14 12 12 14 14 21 15 28 23 16 21 23 31 32 29 26 22 19 17 25 33 43 48 49 49 51 52 53 54 55 55 57 58 59 61 62 62 62 63 63 64 65 65 66 68 69 70 71 71 71 71 71 71 71 70 70 70 71 70 70 70 70 70 70 70 70 70 70 70 70 71 73
29 28 29 30 30 29 30 33 34 33 32 29 16 16 15 12 12 14 25 23 16 29 22 22 22 22 27 24 28 26 23 18 18 27 38 43 46 48 49 51 52 53 54 54 55 56 58 59 60 61 62 62 62 63 64 65 65 66 67 68 69 70 71 71 71 71 71 71 71 71 70 70 70 70 70 70 70 70 70 70 70 70 70 70 70 71
33 27 27 30 31 29 26 27 28 31 30 31 29 16 16 14 12 12 16 17 29 24 18 29 31 20 25 31 30 28 34 39 42 42 39 45 46 47 48 51 58 52 53 54 55 56 58 59 60 61 61 61 61 63 65 65 65 66 67 68 69 70 71 71 72 72 71 71 71 71 71 71 71 71 70 70 70 70 70 70 70 71 70 70 70 69
29 27 26 26 26 25 24 24 26 29 30 31 30 20 16 16 15 12 17 18 32 21 21 27 34 30 27 27 28 31 35 40 44 46 40 45 46 47 48 50 51 51 52 53 54 56 57 58 60 60 61 61 61 62 65 66 66 67 67 68 69 69 70 71 72 72 72 71 71 71 71 71 71 71 71 71 71 70 70 70 70 71 71 71 70 70
29 27 28 28 25 24 24 27 31 31 31 29 29 19 16 15 15 14 15 25 27 33 29 30 39 29 27 26 28 35 39 44 47 51 50 45 46 48 47 49 51 51 51 51 53 54 56 58 59 60 61 62 62 63 65 66 66 67 67 67 68 69 70 71 72 72 72 72 72 72 72 72 72 72 71 71 71 71 70 70 70 70 71 71 70 70
28 28 32 27 25 23 26 31 30 29 32 29 28 26 17 16 15 15 14 19 32 31 27 36 37 34 30 36 36 45 44 42 45 47 48 47 47 48 46 48 50 50 50 51 52 53 56 57 59 60 61 62 63 63 66 67 67 67 67 68 68 69 70 71 72 72 72 72 72 72 72 72 72 72 71 71 71 71 71 70 70 70 70 70 71 71
28 29 28 27 23 23 27 27 31 30 32 29 32 30 20 16 15 15 15 20 27 31 35 39 37 34 37 40 38 38 39 39 39 40 44 48 47 48 47 47 47 49 50 50 51 53 56 58 61 61 62 62 63 64 66 68 68 68 67 68 68 68 70 71 72 72 72 72 72 72 72 72 72 72 71 71 71 71 71 70 70 70 70 70 70 71
28 28 27 26 22 23 25 26 31 33 32 31 30 29 30 31 28 18 19 27 30 32 33 36 35 35 34 41 35 37 36 36 35 37 40 44 49 48 48 49 49 49 51 52 53 55 56 58 61 63 63 63 64 65 66 68 68 68 68 69 69 69 70 71 72 72 72 72 73 72 72 72 71 71 71 71 71 71 71 70 70 70 70 69 70 70
28 28 27 27 23 24 22 28 37 35 27 28 35 39 40 29 40 45 45 48 50 49 34 35 36 42 38 33 32 36 42 44 49 55 50 44 47 50 53 56 57 54 55 53 53 55 56 59 61 64 66 67 67 66 67 69 69 69 69 69 70 69 70 71 72 72 73 73 73 73 72 72 71 71 71 71 71 71 71 71 70 70 70 70 70 70
28 27 26 28 24 24 25 36 38 29 31 39 38 39 41 44 49 49 50 50 50 50 51 45 40 34 41 41 51 55 59 62 63 63 64 65 63 61 63 64 64 62 62 64 65 65 66 67 67 67 68 68 67 68 69 70 70 70 70 70 70 70 70 70 71 72 73 73 73 73 73 72 72 71 71 71 71 71 71 71 71 70 70 70 69 69
27 26 26 27 25 26 35 36 30 34 40 40 39 40 42 41 41 48 49 50 51 51 51 49 42 38 46 57 61 62 62 63 63 63 63 63 63 63 63 64 66 68 68 69 68 68 69 69 69 69 69 70 70 69 69 69 70 70 70 71 71 71 70 70 70 71 72 73 73 73 73 73 72 72 71 71 71 70 70 71 71 71 70 70 69 69
27 27 27 23 29 26 27 28 32 43 41 41 41 39 40 40 40 44 47 49 51 51 51 51 50 46 49 58 61 61 62 62 62 62 63 62 63 65 65 65 66 67 69 70 70 70 70 70 70 70 70 68 68 69 69 69 70 70 70 70 71 71 71 71 70 70 72 73 73 73 73 73 73 72 72 71 71 70 70 70 71 71 71 70 70 69
28 26 28 24 27 30 21 26 36 39 35 40 42 40 40 42 43 42 49 49 52 52 52 52 52 53 49 51 55 57 59 59 59 60 62 62 62 63 66 67 69 70 70 69 69 70 71 71 71 72 71 72 73 73 73 72 70 70 70 70 71 71 71 71 70 71 71 72 73 73 73 73 73 73 72 72 71 71 70 70 70 71 71 70 70 69
28 28 32 25 22 21 24 28 31 30 39 42 44 42 41 43 46 45 48 48 51 52 52 52 53 53 53 54 55 56 56 55 55 57 61 64 64 64 65 67 68 69 69 69 69 70 71 71 72 72 72 72 72 72 74 73 72 69 70 71 71 70 70 70 70 71 71 72 72 73 73 73 73 73 73 72 72 71 71 71 71 71 71 71 70 70
30 27 30 26 23 24 25 26 29 39 37 41 43 43 42 46 48 45 43 46 51 51 51 52 53 54 54 55 56 56 56 55 57 59 62 63 63 64 65 66 66 66 67 69 70 70 71 71 70 70 71 72 73 74 74 74 74 74 71 70 70 71 70 70 70 71 71 72 73 73 73 73 74 74 73 73 73 72 72 72 71 71 71 71 71 70
31 30 27 24 21 24 25 24 36 41 44 45 44 44 44 48 48 43 40 50 52 51 51 52 54 54 55 55 56 56 57 58 60 62 63 63 63 64 65 66 66 66 67 68 70 72 70 70 70 70 70 71 72 73 73 73 72 72 73 73 70 70 70 71 71 71 71 72 73 73 73 73 74 73 73 73 73 73 73 72 72 72 72 71 71 71
28 28 29 29 22 20 21 22 25 41 45 46 45 45 49 48 44 44 53 55 51 48 50 51 53 54 55 56 56 56 57 59 60 61 61 62 63 64 65 66 66 66 67 68 71 70 69 69 70 70 70 71 72 72 73 73 72 71 72 71 71 72 73 71 71 72 72 72 73 74 73 73 74 74 74 74 74 74 73 73 73 72 72 72 72 72
35 27 29 26 30 27 27 26 33 30 42 46 46 48 50 48 49 54 56 54 46 46 48 50 52 53 55 56 57 57 57 58 59 60 61 62 62 63 64 65 66 66 66 66 67 69 69 69 70 70 70 70 71 71 72 73 74 72 71 70 71 73 74 74 71 72 72 72 73 74 74 74 74 74 75 74 74 74 74 74 74 74 73 73 73 73
37 36 34 34 36 31 32 34 35 42 47 48 48 46 52 53 56 56 55 53 46 45 46 48 49 52 54 56 56 57 57 57 58 59 61 62 63 64 64 65 66 66 66 67 68 69 69 69 69 69 69 69 70 70 71 72 72 74 73 70 72 74 76 74 72 72 72 72 73 74 74 74 75 75 75 75 75 75 74 75 75 74 74 74 73 73
37 36 38 33 40 39 39 41 38 40 48 52 49 49 53 52 54 56 55 54 50 46 46 45 46 49 53 54 56 57 57 57 58 59 60 61 63 64 64 65 65 66 67 67 68 69 68 68 69 69 69 69 69 68 69 70 71 72 71 71 73 74 74 74 73 72 72 72 73 74 74 75 75 76 76 76 76 75 75 75 75 75 75 74 74 74
34 35 39 39 40 40 40 41 40 40 40 41 50 53 52 52 52 56 55 54 54 53 46 45 46 47 49 53 55 56 57 58 58 58 59 61 62 63 64 64 64 65 66 67 68 68 68 68 69 68 68 67 68 68 69 69 70 69 70 72 73 74 74 75 73 73 72 72 73 74 74 75 75 76 76 76 76 76 76 75 75 75 75 75 74 74
32 35 32 32 37 33 31 39 35 36 39 38 45 50 48 51 54 54 53 55 51 53 53 48 47 47 48 49 53 56 57 58 58 58 59 60 61 62 62 63 64 65 65 66 67 69 67 68 68 68 67 67 67 68 69 70 70 70 71 71 72 75 75 75 73 74 73 73 73 74 75 75 75 76 76 76 76 76 76 76 76 75 75 75 75 74
31 35 31 37 33 30 34 35 36 36 43 37 43 48 47 49 51 54 54 54 51 47 51 53 48 48 48 48 50 56 56 58 58 58 59 59 60 60 61 62 63 64 65 66 67 68 66 67 67 66 67 67 67 68 69 69 69 70 70 71 72 74 74 75 74 73 73 73 74 74 75 75 78 76 76 75 75 75 76 76 76 75 75 75 75 75
32 36 30 32 31 34 34 38 37 36 41 38 42 43 46 45 50 49 53 51 51 48 48 49 48 50 48 48 48 54 56 57 59 59 59 59 59 59 60 61 62 63 64 65 66 67 66 67 68 67 66 66 67 67 67 68 69 70 69 70 72 73 73 73 74 73 73 73 74 74 75 75 76 74 70 64 59 55 54 53 59 72 71 65 68 75
33 31 33 31 31 31 31 35 37 34 35 37 40 40 42 48 49 50 49 47 46 48 47 48 50 50 48 47 47 48 53 57 58 59 59 59 59 59 59 61 62 63 63 65 66 66 66 68 68 66 66 65 66 67 66 67 67 69 69 71 71 72 72 71 71 71 72 72 73 73 73 72 70 68 66 63 61 58 57 54 47 49 61 62 59 58
31 33 32 31 31 30 33 34 39 40 38 38 40 41 41 42 44 49 48 48 48 46 49 48 47 47 47 47 47 47 48 57 57 58 59 59 59 60 60 61 61 62 63 64 64 65 65 66 68 67 67 65 66 66 67 67 68 68 69 71 71 71 71 71 70 70 70 71 71 69 69 68 67 66 65 64 62 62 61 60 56 47 46 51 52 49